Location: *
(43.8667°N, 20.1333°E)
Time: 10:31:27
(UTC+00:00)

Daily predictions for brighter satellites

Satellite Brightness Start Highest point End
(mag) Time Altitude Azimuth Time Altitude Azimuth Time Altitude Azimuth
Cosmos 2074 Rocket 4.4 17:06:55 10° N 17:12:49 42° ENE 17:18:39 10° SE
Cosmos 1939 Rocket 3.1 17:11:23 10° SE 17:15:05 45° ENE 17:18:47 10° N
Meteor 2-8 Rocket 4.4 17:10:31 10° S 17:16:31 72° E 17:22:36 10° NNE
Cosmos 2151 Rocket 4.0 17:12:55 10° SSE 17:17:02 40° E 17:21:09 10° NNE
SJ-6B 4.5 17:14:13 10° ESE 17:17:02 18° ENE 17:19:50 10° NNE
Sich 1 Rocket 4.1 17:14:28 10° SSW 17:18:51 67° W 17:23:14 10° N
Cosmos 405 3.0 17:16:41 10° N 17:20:10 56° ENE 17:23:35 10° SSE
COSMO-SKYMED 1 3.8 17:16:06 10° N 17:20:18 49° WNW 17:24:29 10° SSW
H-2A R/B 3.5 17:17:45 10° ESE 17:20:56 17° ENE 17:24:09 10° NNE
CSL-04 Rocket 4.1 17:15:34 10° S 17:21:01 71° WSW 17:26:34 10° NNW
GEOS 3 Rocket 3.6 17:18:02 10° SE 17:23:09 83° NE 17:28:18 10° NW
Cosmos 1544 4.5 17:21:49 10° SE 17:24:20 18° E 17:26:52 10° NE
Cosmos 2237 4.2 17:20:29 10° NNW 17:26:15 74° ENE 17:31:58 10° SSE
ATLAS 2AS CENTAUR R/B 3.6 17:19:05 10° NNW 17:26:19 40° NE 17:33:02 10° ESE
Cosmos 2322 Rocket 3.2 17:21:19 10° NW 17:26:44 51° WSW 17:32:08 10° S
Genesis I 3.2 17:23:53 10° NW 17:27:50 87° WSW 17:31:41 10° SSE
Cosmos 2251 Rocket 3.9 17:23:15 10° N 17:28:28 47° ENE 17:33:38 10° SE
SAR-Lupe-2 4.2 17:26:45 10° NNE 17:30:03 33° E 17:33:18 10° SSE
Cosmos 1300 Rocket 3.6 17:26:00 10° S 17:30:14 57° E 17:34:28 10° NNE
FREGAT/IRIS 3.4 17:27:55 10° SE 17:30:22 27° ENE 17:32:50 10° NNE
ADEOS Rocket 4.3 17:27:53 10° NE 17:33:47 26° E 17:39:56 10° SE
Cosmos 1707 4.4 17:32:18 10° NNE 17:34:52 17° ENE 17:36:51 12° ESE
SL-8 R/B 3.9 17:31:58 10° SW 17:36:38 55° SSE 17:41:20 10° ENE
Lacrosse 4 Rocket 2.6 17:35:39 10° NW 17:39:30 42° WSW 17:43:18 10° S
COSMOS 2428 3.3 17:35:22 10° NNW 17:40:40 39° ENE 17:45:32 12° ESE
Okean 2 4.2 17:39:49 10° NNW 17:43:50 55° W 17:47:50 10° S
IRS-1A Rocket 4.3 17:38:45 10° SSE 17:44:31 83° ENE 17:50:13 10° NNW
Cosmos 2322 3.7 17:40:16 10° NNW 17:46:01 71° ENE 17:51:43 10° SSE
Cosmos 1975 3.2 17:42:09 10° SSW 17:46:06 67° W 17:50:06 10° N
MONITOR-E 3.8 17:43:40 10° SSE 17:46:27 80° E 17:49:16 10° N
Cosmos 2184 Rocket 4.0 17:41:18 10° N 17:47:31 74° E 17:53:47 10° SSE
CZ-2D R/B 3.9 17:45:38 10° S 17:49:21 57° W 17:53:07 10° NNW
Cosmos 2219 Rocket 2.6 17:44:16 10° NNW 17:49:37 43° ENE 17:54:03 14° SE
CZ-2C R/B 4.5 17:48:05 14° E 17:50:41 20° ENE 17:54:32 10° NNE
Meteor 1-21 4.2 17:45:14 10° N 17:50:51 79° E 17:56:29 10° SSE
NOAA 11 4.4 17:45:49 10° S 17:51:19 77° WSW 17:56:50 10° NNW
Cosmos 1378 3.2 17:48:45 10° N 17:52:32 83° W 17:56:17 10° S
USA 32 4.2 17:48:13 10° N 17:53:28 77° W 17:58:41 10° S
USA 186 2.2 17:52:06 13° SE 17:54:50 44° ENE 17:58:07 10° N
Cosmos 1461 3.0 17:52:10 10° SSW 17:56:02 46° ESE 17:59:51 10° NE
Resurs 01 Rocket 3.1 17:54:42 16° E 17:56:09 19° ENE 17:59:17 10° NNE
Cosmos 2360 Rocket 2.9 17:54:02 10° NNW 17:59:33 56° WSW 18:05:04 10° S
Cosmos 389 Rocket 4.1 17:59:41 10° NNE 18:01:56 17° ENE 18:01:56 17° ENE
Cosmos 2219 4.0 18:01:17 10° SSE 18:06:01 27° ESE 18:10:47 10° NE
ASTEX 1 3.4 18:01:51 10° NNE 18:06:42 60° E 18:11:31 10° S
Meteor 1-4 Rocket 4.4 18:05:01 10° NNE 18:06:50 16° ENE 18:06:50 16° ENE
Okean 1 Rocket 3.0 18:03:48 10° S 18:08:03 61° E 18:12:22 10° NNE
GP-B 3.3 18:03:53 10° N 18:08:20 75° W 18:12:45 10° S
Cosmos 1842 3.8 18:05:43 10° NNW 18:09:38 60° W 18:13:30 10° S
Cosmos 2227 Rocket 4.2 18:13:48 11° ENE 18:13:48 11° ENE 18:14:05 10° ENE
COSMOS 2455 2.9 18:05:53 10° NNW 18:11:56 80° WSW 18:17:31 12° SSE
Meteor 2-9 Rocket 4.5 18:06:09 10° SSW 18:11:58 75° W 18:17:41 10° N
Cosmos 1610 Rocket 4.5 18:08:40 10° N 18:14:59 82° E 18:21:20 10° S
Timation 2 Rocket 4.1 18:09:22 10° SSW 18:16:03 86° WNW 18:22:28 10° NNE
Ariane Rocket 4.2 18:12:05 10° S 18:16:51 42° W 18:21:40 10° NNW
Cosmos 2056 Rocket 4.5 18:20:07 26° E 18:20:07 26° E 18:24:29 10° NE
Cosmos 2297 Rocket 3.8 18:24:38 16° ENE 18:24:38 16° ENE 18:26:12 10° NE
Nadezhda 1 Rocket 3.9 18:16:35 10° S 18:22:39 87° W 18:28:46 10° N
CZ-2C R/B 3.8 18:20:42 10° N 18:25:11 75° WNW 18:29:36 10° SSW
SPOT 3 Rocket 3.5 18:22:29 11° SSE 18:27:24 89° W 18:32:35 10° NNW
ARGOS 3.1 18:27:02 22° SSE 18:30:31 68° ENE 18:35:52 10° N
Cosmos 407 Rocket 4.1 18:25:58 10° N 18:30:46 38° ENE 18:31:58 33° E
NOSS 3-4 (A) 4.0 18:26:58 10° NNW 18:33:53 61° NE 18:37:42 30° ESE
NOSS 3-4 (C) 4.0 18:27:04 10° NNW 18:33:59 60° NE 18:37:46 30° ESE
Cosmos 2333 Rocket 2.2 18:28:28 10° NNW 18:34:12 86° WSW 18:37:47 24° SSE
Okean 1-7 Rocket 3.8 18:33:58 10° N 18:38:16 49° ENE 18:38:46 46° E
Cosmos 1295 Rocket 4.4 18:32:20 10° N 18:38:35 83° E 18:43:28 17° S
SL-24 R/B 4.4 18:40:05 45° E 18:40:43 49° ENE 18:45:15 10° N
Cosmos 1892 Rocket 3.6 18:40:20 10° N 18:44:45 56° E 18:45:07 54° E
Cosmos 614 Rocket 4.3 18:39:52 10° N 18:44:56 48° ENE 18:45:50 43° E
Aureole 1 Rocket 4.2 18:43:35 10° NNW 18:48:46 45° WSW 18:51:30 19° SSW
Cosmos 2341 Rocket 3.9 18:44:51 10° N 18:51:09 84° E 18:54:49 27° S
SJ-6B 4.0 18:48:11 15° SSW 18:51:21 42° W 18:55:18 10° NNW
NOSS 0 Rocket 3.8 18:45:12 10° NNW 18:51:26 78° ENE 18:53:46 41° SE
Cosmos 2237 Rocket 2.4 18:46:30 10° NNW 18:52:07 54° ENE 18:53:18 46° E
Spot 2 Rocket 3.9 18:54:17 43° ENE 18:54:24 43° ENE 18:59:10 10° N
Cosmos 2181 Rocket 3.9 18:50:47 21° S 18:55:03 68° E 19:01:19 10° NNE
BREEZE-M DEB (TANK) 4.3 18:53:28 10° WNW 18:57:53 51° NNE 19:03:23 24° E
MetOp-A 4.0 18:58:13 47° SSE 18:59:47 80° ENE 19:05:10 10° NNW
H-2A R/B 2.3 18:57:11 26° S 18:59:51 62° W 19:04:48 10° NNW
Cosmos 1980 3.7 18:54:50 10° NNW 19:00:29 67° ENE 19:01:30 55° ESE
SL-08 RB Rocket 3.7 18:59:38 54° S 19:00:43 85° WSW 19:05:25 10° NNW
In-Cosmos 22 4.0 18:55:56 10° N 19:01:17 84° E 19:02:47 49° SSE
Cosmos 1371 Rocket 3.9 18:58:37 19° S 19:02:23 72° ESE 19:07:43 10° NNE
Cosmos 1140 Rocket 3.7 19:01:33 10° NNW 19:06:32 51° ENE 19:06:32 51° ENE
Cosmos 1707 4.1 19:07:17 10° NNW 19:10:54 37° W 19:12:03 29° SW
Cosmos 2218 Rocket 3.9 19:09:32 10° N 19:15:58 78° E 19:17:21 57° SSE
ATLAS 2AS CENTAUR R/B 3.2 19:10:14 10° NW 19:17:41 59° WSW 19:20:32 36° S
SL-8 R/B 4.1 19:14:29 10° W 19:19:13 58° NNW 19:19:45 54° NNE
ADEOS Rocket 3.7 19:12:32 10° N 19:19:39 69° WNW 19:27:16 10° SSW
SL-16 R/B 3.0 19:14:25 10° N 19:19:18 36° NE 19:19:18 36° NE
Cosmos 676 Rocket 4.3 19:14:48 10° NNW 19:19:28 53° NE 19:19:28 53° NE
COSMOS 2428 4.1 19:19:47 10° NW 19:24:50 34° WSW 19:27:34 22° SSW
Cosmos 2366 rocket 3.9 19:18:50 10° N 19:25:14 85° E 19:26:19 64° SSE
Cosmos 1455 Rocket 3.7 19:28:37 52° NNW 19:28:37 52° NNW 19:32:08 10° N
CZ-2C R/B 3.5 19:29:09 51° SW 19:30:01 58° W 19:35:20 10° NNW
Resurs 01 Rocket 2.4 19:32:17 46° W 19:32:18 46° W 19:36:36 10° NNW
Cosmos 864 Rocket 4.4 19:26:44 10° N 19:32:58 88° W 19:33:43 71° S
Terra 3.9 19:35:19 17° NNE 19:35:19 17° NNE 19:36:50 10° NNE
Cosmos 2219 Rocket 3.8 19:28:36 10° NW 19:33:21 29° WSW 19:35:48 21° SW
FALCON 9 R/B 4.4 18:54:04 10° W 19:36:25 59° SSW 19:41:13 43° SSE
Cosmos 1190 Rocket 4.2 19:32:18 10° NNW 19:37:29 65° WSW 19:37:29 65° WSW
SL-8 Rocket 4.3 19:31:44 10° NNW 19:37:50 61° W 19:39:35 44° SSW
BREEZE M DEB (TANK) 3.8 19:36:46 10° WNW 19:38:44 37° NNW 19:38:44 37° NNW
Cosmos 2219 4.1 19:44:21 10° SW 19:49:53 48° WNW 19:55:28 10° NNE
CZ-2C R/B 3.3 19:48:08 10° NNE 19:52:13 51° NNE 19:52:13 51° NNE
Cosmos 2227 Rocket 2.8 19:55:31 49° N 19:55:31 49° N 19:59:42 10° NNE
Cosmos 2297 Rocket 2.8 20:06:19 52° NNW 20:06:19 52° NNW 20:11:08 10° NNE
Meteor 1-24 Rocket 4.3 20:02:03 10° NNW 20:07:05 55° WNW 20:07:05 55° WNW
Cosmos 2237 Rocket 4.1 20:31:21 10° NW 20:35:08 23° W 20:35:08 23° W
USA 234 4.0 20:39:21 45° NNE 20:39:21 45° NNE 20:45:04 10° NW
SL-16 R/B 4.1 20:58:35 10° NW 21:01:11 24° WNW 21:01:11 24° WNW
CZ-4C R/B 4.1 22:36:43 10° NNW 22:41:02 34° N 22:41:02 34° N
